owner,sensor,date,latitude,longitude,vertical_datum,sea_water_practical_salinity,qcFlag 
SCCF RECON,ioos:station:SCCF:13:1,2009-01-01T00:00:00Z,26.5255,-82.0032,2.19,31.29,1111122 
SCCF RECON,ioos:station:SCCF:13:1,2009-01-01T01:00:00Z,26.5255,-82.0032,2.16,31.58,1111122 
SCCF RECON,ioos:station:SCCF:13:1,2009-01-01T02:00:00Z,26.5255,-82.0032,2.13,30.39,1111122 
SCCF RECON,ioos:station:SCCF:13:1,2009-01-01T03:00:00Z,26.5255,-82.0032,2.13,28.56,1111122 
SCCF RECON,ioos:station:SCCF:13:1,2009-01-01T04:00:00Z,26.5255,-82.0032,2.18,27.07,1111122 
SCCF RECON,ioos:station:SCCF:13:1,2009-01-01T05:00:00Z,26.5255,-82.0032,2.27,28.25,1111122 
SCCF RECON,ioos:station:SCCF:13:1,2009-01-01T06:00:00Z,26.5255,-82.0032,2.347,30.51,1111122 
SCCF RECON,ioos:station:SCCF:13:1,2009-01-01T07:00:00Z,26.5255,-82.0032,2.35,30.46,1111122 
SCCF RECON,ioos:station:SCCF:13:1,2009-01-01T08:00:00Z,26.5255,-82.0032,2.35,31.08,1111122 
SCCF RECON,ioos:station:SCCF:13:1,2009-01-01T09:00:00Z,26.5255,-82.0032,2.34,31.57,1111122 
SCCF RECON,ioos:station:SCCF:13:1,2009-01-01T10:00:00Z,26.5255,-82.0032,2.28,31.72,1111122 
SCCF RECON,ioos:station:SCCF:13:1,2009-01-01T11:00:00Z,26.5255,-82.0032,2.19,31.22,1111122 
SCCF RECON,ioos:station:SCCF:13:1,2009-01-01T12:00:00Z,26.5255,-82.0032,2.12,29.3,1111122 
SCCF RECON,ioos:station:SCCF:13:1,2009-01-01T13:00:00Z,26.5255,-82.0032,2.05,27.02,1111122 
SCCF RECON,ioos:station:SCCF:13:1,2009-01-01T14:00:00Z,26.5255,-82.0032,1.99,26.19,1111122 
SCCF RECON,ioos:station:SCCF:13:1,2009-01-01T15:00:00Z,26.5255,-82.0032,1.934,25.11,1111122 
SCCF RECON,ioos:station:SCCF:13:1,2009-01-01T16:00:00Z,26.5255,-82.0032,1.91,24.31,1111122 
SCCF RECON,ioos:station:SCCF:13:1,2009-01-01T17:00:00Z,26.5255,-82.0032,2.003,23.76,1111122 
SCCF RECON,ioos:station:SCCF:13:1,2009-01-01T18:00:00Z,26.5255,-82.0032,2.111,23.48,1111122 
SCCF RECON,ioos:station:SCCF:13:1,2009-01-01T19:00:00Z,26.5255,-82.0032,2.17,25.42,1111122 
SCCF RECON,ioos:station:SCCF:13:1,2009-01-01T20:00:00Z,26.5255,-82.0032,2.22,27.49,1111122 
SCCF RECON,ioos:station:SCCF:13:1,2009-01-01T21:00:00Z,26.5255,-82.0032,2.27,29.27,1111122 
SCCF RECON,ioos:station:SCCF:13:1,2009-01-01T22:00:00Z,26.5255,-82.0032,2.33,31.32,1111122 
SCCF RECON,ioos:station:SCCF:13:1,2009-01-01T23:00:00Z,26.5255,-82.0032,2.36,31.81,1111122 
SCCF RECON,ioos:station:SCCF:13:1,2009-01-02T00:00:00Z,26.5255,-82.0032,2.32,32.07,1111122 
SCCF RECON,ioos:station:SCCF:13:1,2009-01-02T01:00:00Z,26.5255,-82.0032,2.25,32.12,1111122 
SCCF RECON,ioos:station:SCCF:13:1,2009-01-02T02:00:00Z,26.5255,-82.0032,2.18,31.99,1111122 
SCCF RECON,ioos:station:SCCF:13:1,2009-01-02T03:00:00Z,26.5255,-82.0032,2.13,29.68,1111122 
SCCF RECON,ioos:station:SCCF:13:1,2009-01-02T04:00:00Z,26.5255,-82.0032,2.11,26.65,1111122 
SCCF RECON,ioos:station:SCCF:13:1,2009-01-02T05:00:00Z,26.5255,-82.0032,2.15,25.71,1111122 
SCCF RECON,ioos:station:SCCF:13:1,2009-01-02T06:00:00Z,26.5255,-82.0032,2.22,25.98,1111122 
SCCF RECON,ioos:station:SCCF:13:1,2009-01-02T07:00:00Z,26.5255,-82.0032,2.286,30.42,1111122 
SCCF RECON,ioos:station:SCCF:13:1,2009-01-02T08:00:00Z,26.5255,-82.0032,2.32,31.45,1111122 
SCCF RECON,ioos:station:SCCF:13:1,2009-01-02T09:00:00Z,26.5255,-82.0032,2.37,31.87,1111122 
SCCF RECON,ioos:station:SCCF:13:1,2009-01-02T10:00:00Z,26.5255,-82.0032,2.38,32.36,1111122 
SCCF RECON,ioos:station:SCCF:13:1,2009-01-02T11:00:00Z,26.5255,-82.0032,2.35,32.87,1111122 
SCCF RECON,ioos:station:SCCF:13:1,2009-01-02T12:00:00Z,26.5255,-82.0032,2.28,33.11,1111122 
SCCF RECON,ioos:station:SCCF:13:1,2009-01-02T13:00:00Z,26.5255,-82.0032,2.22,32.57,1111122 
SCCF RECON,ioos:station:SCCF:13:1,2009-01-02T14:00:00Z,26.5255,-82.0032,2.16,29.69,1111122 
SCCF RECON,ioos:station:SCCF:13:1,2009-01-02T15:00:00Z,26.5255,-82.0032,2.11,27.74,1111122 
SCCF RECON,ioos:station:SCCF:13:1,2009-01-02T16:00:00Z,26.5255,-82.0032,2.07,27.35,1111122 
SCCF RECON,ioos:station:SCCF:13:1,2009-01-02T17:00:00Z,26.5255,-82.0032,2.07,26.4,1111122 
SCCF RECON,ioos:station:SCCF:13:1,2009-01-02T18:00:00Z,26.5255,-82.0032,2.15,25.85,1111122 
SCCF RECON,ioos:station:SCCF:13:1,2009-01-02T19:00:00Z,26.5255,-82.0032,2.228,26.62,1111122 
SCCF RECON,ioos:station:SCCF:13:1,2009-01-02T20:00:00Z,26.5255,-82.0032,2.28,29.32,1111122 
SCCF RECON,ioos:station:SCCF:13:1,2009-01-02T21:00:00Z,26.5255,-82.0032,2.323,31.1,1111122 
SCCF RECON,ioos:station:SCCF:13:1,2009-01-02T22:00:00Z,26.5255,-82.0032,2.37,32.32,1111122 
SCCF RECON,ioos:station:SCCF:13:1,2009-01-02T23:00:00Z,26.5255,-82.0032,2.38,33.36,1111122 
SCCF RECON,ioos:station:SCCF:13:1,2009-01-03T00:00:00Z,26.5255,-82.0032,2.36,33.59,1111122 
SCCF RECON,ioos:station:SCCF:13:1,2009-01-03T01:00:00Z,26.5255,-82.0032,2.302,33.5,1111122 
SCCF RECON,ioos:station:SCCF:13:1,2009-01-03T02:00:00Z,26.5255,-82.0032,2.25,33.53,1111122 
SCCF RECON,ioos:station:SCCF:13:1,2009-01-03T03:00:00Z,26.5255,-82.0032,2.2,32.19,1111122 
SCCF RECON,ioos:station:SCCF:13:1,2009-01-03T04:00:00Z,26.5255,-82.0032,2.15,29.46,1111122 
SCCF RECON,ioos:station:SCCF:13:1,2009-01-03T05:00:00Z,26.5255,-82.0032,2.13,28.54,1111122 
SCCF RECON,ioos:station:SCCF:13:1,2009-01-03T06:00:00Z,26.5255,-82.0032,2.16,27.13,1111122 
SCCF RECON,ioos:station:SCCF:13:1,2009-01-03T07:00:00Z,26.5255,-82.0032,2.22,26.98,1111122 
SCCF RECON,ioos:station:SCCF:13:1,2009-01-03T08:00:00Z,26.5255,-82.0032,2.29,28.66,1111122 
SCCF RECON,ioos:station:SCCF:13:1,2009-01-03T09:00:00Z,26.5255,-82.0032,2.32,30.92,1111122 
SCCF RECON,ioos:station:SCCF:13:1,2009-01-03T10:00:00Z,26.5255,-82.0032,2.35,31.22,1111122 
SCCF RECON,ioos:station:SCCF:13:1,2009-01-03T11:00:00Z,26.5255,-82.0032,2.35,32.06,1111122 
SCCF RECON,ioos:station:SCCF:13:1,2009-01-03T12:00:00Z,26.5255,-82.0032,2.32,32.65,1111122 
SCCF RECON,ioos:station:SCCF:13:1,2009-01-03T13:00:00Z,26.5255,-82.0032,2.272,32.82,1111122 
SCCF RECON,ioos:station:SCCF:13:1,2009-01-03T14:00:00Z,26.5255,-82.0032,2.22,31.6,1111122 
SCCF RECON,ioos:station:SCCF:13:1,2009-01-03T15:00:00Z,26.5255,-82.0032,2.17,28.68,1111122 
SCCF RECON,ioos:station:SCCF:13:1,2009-01-03T16:00:00Z,26.5255,-82.0032,2.13,27.72,1111122 
SCCF RECON,ioos:station:SCCF:13:1,2009-01-03T17:00:00Z,26.5255,-82.0032,2.1,27.62,1111122 
SCCF RECON,ioos:station:SCCF:13:1,2009-01-03T18:00:00Z,26.5255,-82.0032,2.14,26.93,1111122 
SCCF RECON,ioos:station:SCCF:13:1,2009-01-03T19:00:00Z,26.5255,-82.0032,2.232,26.85,1111122 
SCCF RECON,ioos:station:SCCF:13:1,2009-01-03T20:00:00Z,26.5255,-82.0032,2.3,29.12,1111122 
SCCF RECON,ioos:station:SCCF:13:1,2009-01-03T21:00:00Z,26.5255,-82.0032,2.35,30.32,1111122 
SCCF RECON,ioos:station:SCCF:13:1,2009-01-03T22:00:00Z,26.5255,-82.0032,2.4,31.66,1111122 
SCCF RECON,ioos:station:SCCF:13:1,2009-01-03T23:00:00Z,26.5255,-82.0032,2.44,33.33,1111122 
SCCF RECON,ioos:station:SCCF:13:1,2009-01-04T00:00:00Z,26.5255,-82.0032,2.45,33.91,1111122 
SCCF RECON,ioos:station:SCCF:13:1,2009-01-04T01:00:00Z,26.5255,-82.0032,2.39,33.97,1111122 
SCCF RECON,ioos:station:SCCF:13:1,2009-01-04T02:00:00Z,26.5255,-82.0032,2.31,33.87,1111122 
SCCF RECON,ioos:station:SCCF:13:1,2009-01-04T03:00:00Z,26.5255,-82.0032,2.24,32.35,1111122 
SCCF RECON,ioos:station:SCCF:13:1,2009-01-04T04:00:00Z,26.5255,-82.0032,2.19,29.22,1111122 
SCCF RECON,ioos:station:SCCF:13:1,2009-01-04T05:00:00Z,26.5255,-82.0032,2.14,28.51,1111122 
SCCF RECON,ioos:station:SCCF:13:1,2009-01-04T06:00:00Z,26.5255,-82.0032,2.09,27.95,1111122 
SCCF RECON,ioos:station:SCCF:13:1,2009-01-04T07:00:00Z,26.5255,-82.0032,2.08,26.75,1111122 
SCCF RECON,ioos:station:SCCF:13:1,2009-01-04T08:00:00Z,26.5255,-82.0032,2.12,26.1,1111122 
SCCF RECON,ioos:station:SCCF:13:1,2009-01-04T09:00:00Z,26.5255,-82.0032,2.19,25.8,1111122 
SCCF RECON,ioos:station:SCCF:13:1,2009-01-04T10:00:00Z,26.5255,-82.0032,2.24,27.32,1111122 
SCCF RECON,ioos:station:SCCF:13:1,2009-01-04T11:00:00Z,26.5255,-82.0032,2.27,29.44,1111122 
SCCF RECON,ioos:station:SCCF:13:1,2009-01-04T12:00:00Z,26.5255,-82.0032,2.29,30.69,1111122 
SCCF RECON,ioos:station:SCCF:13:1,2009-01-04T13:00:00Z,26.5255,-82.0032,2.27,31.39,1111122 
SCCF RECON,ioos:station:SCCF:13:1,2009-01-04T14:00:00Z,26.5255,-82.0032,2.23,31.69,1111122 
SCCF RECON,ioos:station:SCCF:13:1,2009-01-04T15:00:00Z,26.5255,-82.0032,2.19,31.54,1111122 
SCCF RECON,ioos:station:SCCF:13:1,2009-01-04T16:00:00Z,26.5255,-82.0032,2.15,28.52,1111122 
SCCF RECON,ioos:station:SCCF:13:1,2009-01-04T17:00:00Z,26.5255,-82.0032,2.14,26.69,1111122 
SCCF RECON,ioos:station:SCCF:13:1,2009-01-04T18:00:00Z,26.5255,-82.0032,2.133,25.74,1111122 
SCCF RECON,ioos:station:SCCF:13:1,2009-01-04T19:00:00Z,26.5255,-82.0032,2.16,25.62,1111122 
SCCF RECON,ioos:station:SCCF:13:1,2009-01-04T20:00:00Z,26.5255,-82.0032,2.233,26.13,1111122 
SCCF RECON,ioos:station:SCCF:13:1,2009-01-04T21:00:00Z,26.5255,-82.0032,2.31,29.25,1111122 
SCCF RECON,ioos:station:SCCF:13:1,2009-01-04T22:00:00Z,26.5255,-82.0032,2.38,31.15,1111122 
SCCF RECON,ioos:station:SCCF:13:1,2009-01-04T23:00:00Z,26.5255,-82.0032,2.44,32.89,1111122 
SCCF RECON,ioos:station:SCCF:13:1,2009-01-05T00:00:00Z,26.5255,-82.0032,2.45,33.83,1111122 
SCCF RECON,ioos:station:SCCF:13:1,2009-01-05T01:00:00Z,26.5255,-82.0032,2.405,34.17,1111122 
SCCF RECON,ioos:station:SCCF:13:1,2009-01-05T02:00:00Z,26.5255,-82.0032,2.33,34.23,1111122 
SCCF RECON,ioos:station:SCCF:13:1,2009-01-05T03:00:00Z,26.5255,-82.0032,2.25,33.01,1111122 
SCCF RECON,ioos:station:SCCF:13:1,2009-01-05T04:00:00Z,26.5255,-82.0032,2.19,31.14,1111122 
SCCF RECON,ioos:station:SCCF:13:1,2009-01-05T05:00:00Z,26.5255,-82.0032,2.121,28.52,1111122 
SCCF RECON,ioos:station:SCCF:13:1,2009-01-05T06:00:00Z,26.5255,-82.0032,2.05,27.41,1111122 
SCCF RECON,ioos:station:SCCF:13:1,2009-01-05T07:00:00Z,26.5255,-82.0032,1.99,25.95,1111122 
SCCF RECON,ioos:station:SCCF:13:1,2009-01-05T08:00:00Z,26.5255,-82.0032,1.96,25.33,1111122 
SCCF RECON,ioos:station:SCCF:13:1,2009-01-05T09:00:00Z,26.5255,-82.0032,2.01,24.73,1111122 
SCCF RECON,ioos:station:SCCF:13:1,2009-01-05T10:00:00Z,26.5255,-82.0032,2.09,24.22,1111122 
SCCF RECON,ioos:station:SCCF:13:1,2009-01-05T11:00:00Z,26.5255,-82.0032,2.15,24.11,1111122 
SCCF RECON,ioos:station:SCCF:13:1,2009-01-05T12:00:00Z,26.5255,-82.0032,2.18,26.6,1111122 
SCCF RECON,ioos:station:SCCF:13:1,2009-01-05T13:00:00Z,26.5255,-82.0032,2.21,28.32,1111122 
SCCF RECON,ioos:station:SCCF:13:1,2009-01-05T14:00:00Z,26.5255,-82.0032,2.22,29.46,1111122 
SCCF RECON,ioos:station:SCCF:13:1,2009-01-05T15:00:00Z,26.5255,-82.0032,2.22,30.22,1111122 
SCCF RECON,ioos:station:SCCF:13:1,2009-01-05T16:00:00Z,26.5255,-82.0032,2.21,31.32,1111122 
SCCF RECON,ioos:station:SCCF:13:1,2009-01-05T17:00:00Z,26.5255,-82.0032,2.2,31.83,1111122 
SCCF RECON,ioos:station:SCCF:13:1,2009-01-05T18:00:00Z,26.5255,-82.0032,2.18,31.76,1111122 
SCCF RECON,ioos:station:SCCF:13:1,2009-01-05T19:00:00Z,26.5255,-82.0032,2.199,31.49,1111122 
SCCF RECON,ioos:station:SCCF:13:1,2009-01-05T20:00:00Z,26.5255,-82.0032,2.25,31.91,1111122 
SCCF RECON,ioos:station:SCCF:13:1,2009-01-05T21:00:00Z,26.5255,-82.0032,2.31,31.28,1111122 
SCCF RECON,ioos:station:SCCF:13:1,2009-01-05T22:00:00Z,26.5255,-82.0032,2.38,32.32,1111122 
SCCF RECON,ioos:station:SCCF:13:1,2009-01-05T23:00:00Z,26.5255,-82.0032,2.43,32.97,1111122 
SCCF RECON,ioos:station:SCCF:13:1,2009-01-06T00:00:00Z,26.5255,-82.0032,2.47,33.51,1111122 
SCCF RECON,ioos:station:SCCF:13:1,2009-01-06T01:00:00Z,26.5255,-82.0032,2.48,33.79,1111122 
SCCF RECON,ioos:station:SCCF:13:1,2009-01-06T02:00:00Z,26.5255,-82.0032,2.45,34.05,1111122 
SCCF RECON,ioos:station:SCCF:13:1,2009-01-06T03:00:00Z,26.5255,-82.0032,2.37,33.83,1111122 
SCCF RECON,ioos:station:SCCF:13:1,2009-01-06T04:00:00Z,26.5255,-82.0032,2.28,33.11,1111122 
SCCF RECON,ioos:station:SCCF:13:1,2009-01-06T05:00:00Z,26.5255,-82.0032,2.2,30.02,1111122 
SCCF RECON,ioos:station:SCCF:13:1,2009-01-06T06:00:00Z,26.5255,-82.0032,2.12,28.44,1111122 
SCCF RECON,ioos:station:SCCF:13:1,2009-01-06T07:00:00Z,26.5255,-82.0032,2.04,27.31,1111122 
SCCF RECON,ioos:station:SCCF:13:1,2009-01-06T08:00:00Z,26.5255,-82.0032,1.96,27.1,1111122 
SCCF RECON,ioos:station:SCCF:13:1,2009-01-06T09:00:00Z,26.5255,-82.0032,1.93,26.5,1111122 
SCCF RECON,ioos:station:SCCF:13:1,2009-01-06T10:00:00Z,26.5255,-82.0032,1.98,25.71,1111122 
SCCF RECON,ioos:station:SCCF:13:1,2009-01-06T11:00:00Z,26.5255,-82.0032,2.07,24.77,1111122 
SCCF RECON,ioos:station:SCCF:13:1,2009-01-06T12:00:00Z,26.5255,-82.0032,2.13,24.6,1111122 
SCCF RECON,ioos:station:SCCF:13:1,2009-01-06T13:00:00Z,26.5255,-82.0032,2.17,26.12,1111122 
SCCF RECON,ioos:station:SCCF:13:1,2009-01-06T14:00:00Z,26.5255,-82.0032,2.21,27.11,1111122 
SCCF RECON,ioos:station:SCCF:13:1,2009-01-06T15:00:00Z,26.5255,-82.0032,2.23,28.86,1111122 
SCCF RECON,ioos:station:SCCF:13:1,2009-01-06T16:00:00Z,26.5255,-82.0032,2.24,29.9,1111122 
SCCF RECON,ioos:station:SCCF:13:1,2009-01-06T17:00:00Z,26.5255,-82.0032,2.24,31.26,1111122 
SCCF RECON,ioos:station:SCCF:13:1,2009-01-06T18:00:00Z,26.5255,-82.0032,2.23,32.3,1111122 
SCCF RECON,ioos:station:SCCF:13:1,2009-01-06T19:00:00Z,26.5255,-82.0032,2.22,32.57,1111122 
SCCF RECON,ioos:station:SCCF:13:1,2009-01-06T20:00:00Z,26.5255,-82.0032,2.23,32.84,1111122 
SCCF RECON,ioos:station:SCCF:13:1,2009-01-06T21:00:00Z,26.5255,-82.0032,2.286,32.84,1111122 
SCCF RECON,ioos:station:SCCF:13:1,2009-01-06T22:00:00Z,26.5255,-82.0032,2.35,33.28,1111122 
SCCF RECON,ioos:station:SCCF:13:1,2009-01-06T23:00:00Z,26.5255,-82.0032,2.42,33.68,1111122 
SCCF RECON,ioos:station:SCCF:13:1,2009-01-07T00:00:00Z,26.5255,-82.0032,2.48,33.89,1111122 
SCCF RECON,ioos:station:SCCF:13:1,2009-01-07T01:00:00Z,26.5255,-82.0032,2.51,33.89,1111122 
SCCF RECON,ioos:station:SCCF:13:1,2009-01-07T02:00:00Z,26.5255,-82.0032,2.52,34.0,1111122 
SCCF RECON,ioos:station:SCCF:13:1,2009-01-07T03:00:00Z,26.5255,-82.0032,2.51,34.03,1111122 
SCCF RECON,ioos:station:SCCF:13:1,2009-01-07T04:00:00Z,26.5255,-82.0032,2.43,34.06,1111122 
SCCF RECON,ioos:station:SCCF:13:1,2009-01-07T05:00:00Z,26.5255,-82.0032,2.32,33.95,1111122 
SCCF RECON,ioos:station:SCCF:13:1,2009-01-07T06:00:00Z,26.5255,-82.0032,2.23,33.32,1111122 
SCCF RECON,ioos:station:SCCF:13:1,2009-01-07T07:00:00Z,26.5255,-82.0032,2.145,32.16,1111122 
SCCF RECON,ioos:station:SCCF:13:1,2009-01-07T08:00:00Z,26.5255,-82.0032,2.055,31.69,1111122 
SCCF RECON,ioos:station:SCCF:13:1,2009-01-07T09:00:00Z,26.5255,-82.0032,1.97,30.21,1111122 
SCCF RECON,ioos:station:SCCF:13:1,2009-01-07T10:00:00Z,26.5255,-82.0032,1.93,29.05,1111122 
SCCF RECON,ioos:station:SCCF:13:1,2009-01-07T11:00:00Z,26.5255,-82.0032,1.98,28.37,1111122 
SCCF RECON,ioos:station:SCCF:13:1,2009-01-07T12:00:00Z,26.5255,-82.0032,2.06,27.87,1111122 
SCCF RECON,ioos:station:SCCF:13:1,2009-01-07T13:00:00Z,26.5255,-82.0032,2.13,27.74,1111122 
SCCF RECON,ioos:station:SCCF:13:1,2009-01-07T14:00:00Z,26.5255,-82.0032,2.2,30.2,1111122 
SCCF RECON,ioos:station:SCCF:13:1,2009-01-07T15:00:00Z,26.5255,-82.0032,2.26,29.56,1111122 
SCCF RECON,ioos:station:SCCF:13:1,2009-01-07T16:00:00Z,26.5255,-82.0032,2.29,31.04,1111122 
SCCF RECON,ioos:station:SCCF:13:1,2009-01-07T17:00:00Z,26.5255,-82.0032,2.3,33.03,1111122 
SCCF RECON,ioos:station:SCCF:13:1,2009-01-07T18:00:00Z,26.5255,-82.0032,2.3,33.65,1111122 
SCCF RECON,ioos:station:SCCF:13:1,2009-01-07T19:00:00Z,26.5255,-82.0032,2.29,33.78,1111122 
SCCF RECON,ioos:station:SCCF:13:1,2009-01-07T20:00:00Z,26.5255,-82.0032,2.28,33.88,1111122 
SCCF RECON,ioos:station:SCCF:13:1,2009-01-07T21:00:00Z,26.5255,-82.0032,2.28,33.9,1111122 
SCCF RECON,ioos:station:SCCF:13:1,2009-01-07T22:00:00Z,26.5255,-82.0032,2.24,32.7,1111122 
SCCF RECON,ioos:station:SCCF:13:1,2009-01-07T23:00:00Z,26.5255,-82.0032,2.29,32.27,1111122 
SCCF RECON,ioos:station:SCCF:13:1,2009-01-08T00:00:00Z,26.5255,-82.0032,2.32,32.28,1111122 
SCCF RECON,ioos:station:SCCF:13:1,2009-01-08T01:00:00Z,26.5255,-82.0032,2.373,32.56,1111122 
SCCF RECON,ioos:station:SCCF:13:1,2009-01-08T02:00:00Z,26.5255,-82.0032,2.39,33.03,1111122 
SCCF RECON,ioos:station:SCCF:13:1,2009-01-08T03:00:00Z,26.5255,-82.0032,2.42,32.62,1111122 
SCCF RECON,ioos:station:SCCF:13:1,2009-01-08T04:00:00Z,26.5255,-82.0032,2.4,33.01,1111122 
SCCF RECON,ioos:station:SCCF:13:1,2009-01-08T05:00:00Z,26.5255,-82.0032,2.29,33.1,1111122 
SCCF RECON,ioos:station:SCCF:13:1,2009-01-08T06:00:00Z,26.5255,-82.0032,2.17,32.35,1111122 
SCCF RECON,ioos:station:SCCF:13:1,2009-01-08T07:00:00Z,26.5255,-82.0032,2.1,30.93,1111122 
SCCF RECON,ioos:station:SCCF:13:1,2009-01-08T08:00:00Z,26.5255,-82.0032,2.01,29.03,1111122 
SCCF RECON,ioos:station:SCCF:13:1,2009-01-08T09:00:00Z,26.5255,-82.0032,1.93,27.67,1111122 
SCCF RECON,ioos:station:SCCF:13:1,2009-01-08T10:00:00Z,26.5255,-82.0032,1.85,26.47,1111122 
SCCF RECON,ioos:station:SCCF:13:1,2009-01-08T11:00:00Z,26.5255,-82.0032,1.81,25.93,1111122 
SCCF RECON,ioos:station:SCCF:13:1,2009-01-08T12:00:00Z,26.5255,-82.0032,1.83,25.2,1111122 
SCCF RECON,ioos:station:SCCF:13:1,2009-01-08T13:00:00Z,26.5255,-82.0032,1.95,24.66,1111122 
SCCF RECON,ioos:station:SCCF:13:1,2009-01-08T14:00:00Z,26.5255,-82.0032,2.07,24.34,1111122 
SCCF RECON,ioos:station:SCCF:13:1,2009-01-08T15:00:00Z,26.5255,-82.0032,2.143,25.79,1111122 
SCCF RECON,ioos:station:SCCF:13:1,2009-01-08T16:00:00Z,26.5255,-82.0032,2.21,27.24,1111122 
SCCF RECON,ioos:station:SCCF:13:1,2009-01-08T17:00:00Z,26.5255,-82.0032,2.25,29.29,1111122 
SCCF RECON,ioos:station:SCCF:13:1,2009-01-08T18:00:00Z,26.5255,-82.0032,2.24,31.88,1111122 
SCCF RECON,ioos:station:SCCF:13:1,2009-01-08T19:00:00Z,26.5255,-82.0032,2.2,32.33,1111122 
SCCF RECON,ioos:station:SCCF:13:1,2009-01-08T20:00:00Z,26.5255,-82.0032,2.19,32.44,1111122 
SCCF RECON,ioos:station:SCCF:13:1,2009-01-08T21:00:00Z,26.5255,-82.0032,2.2,32.49,1111122 
SCCF RECON,ioos:station:SCCF:13:1,2009-01-08T22:00:00Z,26.5255,-82.0032,2.24,32.09,1111122 
SCCF RECON,ioos:station:SCCF:13:1,2009-01-08T23:00:00Z,26.5255,-82.0032,2.31,31.99,1111122 
SCCF RECON,ioos:station:SCCF:13:1,2009-01-09T00:00:00Z,26.5255,-82.0032,2.38,32.26,1111122 
SCCF RECON,ioos:station:SCCF:13:1,2009-01-09T01:00:00Z,26.5255,-82.0032,2.43,32.45,1111122 
SCCF RECON,ioos:station:SCCF:13:1,2009-01-09T02:00:00Z,26.5255,-82.0032,2.47,33.11,1111122 
SCCF RECON,ioos:station:SCCF:13:1,2009-01-09T03:00:00Z,26.5255,-82.0032,2.52,33.75,1111122 
SCCF RECON,ioos:station:SCCF:13:1,2009-01-09T04:00:00Z,26.5255,-82.0032,2.54,34.05,1111122 
SCCF RECON,ioos:station:SCCF:13:1,2009-01-09T05:00:00Z,26.5255,-82.0032,2.48,34.14,1111122 
SCCF RECON,ioos:station:SCCF:13:1,2009-01-09T06:00:00Z,26.5255,-82.0032,2.368,34.14,1111122 
SCCF RECON,ioos:station:SCCF:13:1,2009-01-09T07:00:00Z,26.5255,-82.0032,2.25,32.87,1111122 
SCCF RECON,ioos:station:SCCF:13:1,2009-01-09T08:00:00Z,26.5255,-82.0032,2.155,31.16,1111122 
SCCF RECON,ioos:station:SCCF:13:1,2009-01-09T09:00:00Z,26.5255,-82.0032,2.06,30.39,1111122 
SCCF RECON,ioos:station:SCCF:13:1,2009-01-09T10:00:00Z,26.5255,-82.0032,1.97,28.86,1111122 
SCCF RECON,ioos:station:SCCF:13:1,2009-01-09T11:00:00Z,26.5255,-82.0032,1.89,28.01,1111122 
SCCF RECON,ioos:station:SCCF:13:1,2009-01-09T12:00:00Z,26.5255,-82.0032,1.84,27.23,1111122 
SCCF RECON,ioos:station:SCCF:13:1,2009-01-09T13:00:00Z,26.5255,-82.0032,1.87,26.47,1111122 
SCCF RECON,ioos:station:SCCF:13:1,2009-01-09T14:00:00Z,26.5255,-82.0032,1.96,25.78,1111122 
SCCF RECON,ioos:station:SCCF:13:1,2009-01-09T15:00:00Z,26.5255,-82.0032,2.055,25.16,1111122 
SCCF RECON,ioos:station:SCCF:13:1,2009-01-09T16:00:00Z,26.5255,-82.0032,2.14,24.82,1111122 
SCCF RECON,ioos:station:SCCF:13:1,2009-01-09T17:00:00Z,26.5255,-82.0032,2.197,27.3,1111122 
SCCF RECON,ioos:station:SCCF:13:1,2009-01-09T18:00:00Z,26.5255,-82.0032,2.197,28.08,1111122 
SCCF RECON,ioos:station:SCCF:13:1,2009-01-09T19:00:00Z,26.5255,-82.0032,2.16,29.21,1111122 
SCCF RECON,ioos:station:SCCF:13:1,2009-01-09T20:00:00Z,26.5255,-82.0032,2.13,29.98,1111122 
SCCF RECON,ioos:station:SCCF:13:1,2009-01-09T21:00:00Z,26.5255,-82.0032,2.14,31.05,1111122 
SCCF RECON,ioos:station:SCCF:13:1,2009-01-09T22:00:00Z,26.5255,-82.0032,2.16,31.17,1111122 
SCCF RECON,ioos:station:SCCF:13:1,2009-01-09T23:00:00Z,26.5255,-82.0032,2.2,31.23,1111122 
SCCF RECON,ioos:station:SCCF:13:1,2009-01-10T00:00:00Z,26.5255,-82.0032,2.27,31.34,1111122 
SCCF RECON,ioos:station:SCCF:13:1,2009-01-10T01:00:00Z,26.5255,-82.0032,2.352,32.07,1111122 
SCCF RECON,ioos:station:SCCF:13:1,2009-01-10T02:00:00Z,26.5255,-82.0032,2.43,32.66,1111122 
SCCF RECON,ioos:station:SCCF:13:1,2009-01-10T03:00:00Z,26.5255,-82.0032,2.5,33.31,1111122 
SCCF RECON,ioos:station:SCCF:13:1,2009-01-10T04:00:00Z,26.5255,-82.0032,2.56,33.81,1111122 
SCCF RECON,ioos:station:SCCF:13:1,2009-01-10T05:00:00Z,26.5255,-82.0032,2.588,34.09,1111122 
SCCF RECON,ioos:station:SCCF:13:1,2009-01-10T06:00:00Z,26.5255,-82.0032,2.53,33.97,1111122 
SCCF RECON,ioos:station:SCCF:13:1,2009-01-10T07:00:00Z,26.5255,-82.0032,2.39,33.92,1111122 
SCCF RECON,ioos:station:SCCF:13:1,2009-01-10T08:00:00Z,26.5255,-82.0032,2.27,33.3,1111122 
SCCF RECON,ioos:station:SCCF:13:1,2009-01-10T09:00:00Z,26.5255,-82.0032,2.18,30.62,1111122 
SCCF RECON,ioos:station:SCCF:13:1,2009-01-10T10:00:00Z,26.5255,-82.0032,2.09,30.44,1111122 
SCCF RECON,ioos:station:SCCF:13:1,2009-01-10T11:00:00Z,26.5255,-82.0032,1.99,28.92,1111122 
SCCF RECON,ioos:station:SCCF:13:1,2009-01-10T12:00:00Z,26.5255,-82.0032,1.91,27.61,1111122 
SCCF RECON,ioos:station:SCCF:13:1,2009-01-10T13:00:00Z,26.5255,-82.0032,1.87,26.8,1111122 
SCCF RECON,ioos:station:SCCF:13:1,2009-01-10T14:00:00Z,26.5255,-82.0032,1.95,26.14,1111122 
SCCF RECON,ioos:station:SCCF:13:1,2009-01-10T15:00:00Z,26.5255,-82.0032,2.07,25.55,1111122 
SCCF RECON,ioos:station:SCCF:13:1,2009-01-10T16:00:00Z,26.5255,-82.0032,2.149,25.24,1111122 
SCCF RECON,ioos:station:SCCF:13:1,2009-01-10T17:00:00Z,26.5255,-82.0032,2.208,27.94,1111122 
SCCF RECON,ioos:station:SCCF:13:1,2009-01-10T18:00:00Z,26.5255,-82.0032,2.24,28.73,1111122 
SCCF RECON,ioos:station:SCCF:13:1,2009-01-10T19:00:00Z,26.5255,-82.0032,2.244,30.03,1111122 
SCCF RECON,ioos:station:SCCF:13:1,2009-01-10T20:00:00Z,26.5255,-82.0032,2.22,31.66,1111122 
SCCF RECON,ioos:station:SCCF:13:1,2009-01-10T21:00:00Z,26.5255,-82.0032,2.2,32.25,1111122 
SCCF RECON,ioos:station:SCCF:13:1,2009-01-10T22:00:00Z,26.5255,-82.0032,2.21,32.32,1111122 
SCCF RECON,ioos:station:SCCF:13:1,2009-01-10T23:00:00Z,26.5255,-82.0032,2.22,32.44,1111122 
SCCF RECON,ioos:station:SCCF:13:1,2009-01-11T00:00:00Z,26.5255,-82.0032,2.25,32.3,1111122 
SCCF RECON,ioos:station:SCCF:13:1,2009-01-11T01:00:00Z,26.5255,-82.0032,2.32,32.14,1111122 
SCCF RECON,ioos:station:SCCF:13:1,2009-01-11T02:00:00Z,26.5255,-82.0032,2.42,32.19,1111122 
SCCF RECON,ioos:station:SCCF:13:1,2009-01-11T03:00:00Z,26.5255,-82.0032,2.51,32.82,1111122 
SCCF RECON,ioos:station:SCCF:13:1,2009-01-11T04:00:00Z,26.5255,-82.0032,2.589,33.76,1111122 
SCCF RECON,ioos:station:SCCF:13:1,2009-01-11T05:00:00Z,26.5255,-82.0032,2.642,33.82,1111122 
SCCF RECON,ioos:station:SCCF:13:1,2009-01-11T06:00:00Z,26.5255,-82.0032,2.66,34.01,1111122 
SCCF RECON,ioos:station:SCCF:13:1,2009-01-11T07:00:00Z,26.5255,-82.0032,2.571,34.0,1111122 
SCCF RECON,ioos:station:SCCF:13:1,2009-01-11T08:00:00Z,26.5255,-82.0032,2.44,33.95,1111122 
SCCF RECON,ioos:station:SCCF:13:1,2009-01-11T09:00:00Z,26.5255,-82.0032,2.32,33.61,1111122 
SCCF RECON,ioos:station:SCCF:13:1,2009-01-11T10:00:00Z,26.5255,-82.0032,2.22,32.24,1111122 
SCCF RECON,ioos:station:SCCF:13:1,2009-01-11T11:00:00Z,26.5255,-82.0032,2.119,31.18,1111122 
SCCF RECON,ioos:station:SCCF:13:1,2009-01-11T12:00:00Z,26.5255,-82.0032,2.02,30.08,1111122 
SCCF RECON,ioos:station:SCCF:13:1,2009-01-11T13:00:00Z,26.5255,-82.0032,1.95,29.46,1111122 
SCCF RECON,ioos:station:SCCF:13:1,2009-01-11T14:00:00Z,26.5255,-82.0032,1.92,28.36,1111122 
SCCF RECON,ioos:station:SCCF:13:1,2009-01-11T15:00:00Z,26.5255,-82.0032,2.02,27.68,1111122 
SCCF RECON,ioos:station:SCCF:13:1,2009-01-11T16:00:00Z,26.5255,-82.0032,2.13,27.08,1111122 
SCCF RECON,ioos:station:SCCF:13:1,2009-01-11T17:00:00Z,26.5255,-82.0032,2.19,26.83,1111122 
SCCF RECON,ioos:station:SCCF:13:1,2009-01-11T18:00:00Z,26.5255,-82.0032,2.23,28.86,1111122 